This is the latest recevied weather packets stored in our database for station/object SQ9SMC-13. If no packets are shown the sender has not sent any weather packets the latest 10 day(s).
| Time | Temp. | Humidity | Pressure | Rain* | Wind** | Luminosity | Snow |
|---|---|---|---|---|---|---|---|
| 1777926304 | 12.22° C | 73% | 1014.6 hPa | 0 mm | - | 0 W/m² | - |
| 1777926003 | 12.78° C | 72% | 1014.6 hPa | 0 mm | - | 0 W/m² | - |
| 1777925705 | 12.78° C | 71% | 1014.6 hPa | 0 mm | - | 0 W/m² | - |
| 1777925404 | 12.78° C | 69% | 1014.4 hPa | 0 mm | - | 0 W/m² | - |
| 1777925104 | 13.33° C | 69% | 1014.6 hPa | 0 mm | - | 0 W/m² | - |
| 1777924804 | 13.33° C | 67% | 1014.7 hPa | 0 mm | - | 0 W/m² | - |
| 1777924503 | 13.89° C | 67% | 1014.4 hPa | 0 mm | - | 0 W/m² | - |
| 1777924204 | 13.89° C | 65% | 1014.5 hPa | 0 mm | - | 0 W/m² | - |
| 1777923903 | 14.44° C | 64% | 1014.6 hPa | 0 mm | - | 0 W/m² | - |
| 1777923606 | 15° C | 64% | 1014.6 hPa | 0 mm | - | 0 W/m² | - |
| 1777923305 | 15° C | 63% | 1014.4 hPa | 0 mm | - | 0 W/m² | - |
| 1777923004 | 15° C | 61% | 1014.5 hPa | 0 mm | - | 0 W/m² | - |
| 1777922749 | 15.56° C | 61% | 1014.3 hPa | 0 mm | - | 0 W/m² | - |
| 1777922402 | 16.11° C | 60% | 1014.5 hPa | 0 mm | - | 0 W/m² | - |
| 1777922103 | 16.11° C | 58% | 1014.5 hPa | 0 mm | - | 0 W/m² | - |
| 1777921802 | 16.67° C | 57% | 1014.5 hPa | 0 mm | - | 0 W/m² | - |
| 1777921503 | 17.22° C | 56% | 1014.5 hPa | 0 mm | - | 0 W/m² | - |
| 1777921204 | 17.78° C | 55% | 1014.5 hPa | 0 mm | - | 0 W/m² | - |
| 1777920904 | 18.33° C | 52% | 1014.5 hPa | 0 mm | - | 0 W/m² | - |
| 1777920605 | 18.89° C | 50% | 1014.2 hPa | 0 mm | - | 0 W/m² | - |
| 1777920303 | 18.89° C | 49% | 1014.2 hPa | 0 mm | - | 0 W/m² | - |
| 1777920003 | 19.44° C | 47% | 1014.4 hPa | 0 mm | - | 0 W/m² | - |
| 1777919704 | 19.44° C | 47% | 1014.4 hPa | 0 mm | - | 0 W/m² | - |
| 1777919405 | 20° C | 46% | 1014.3 hPa | 0 mm | - | 0 W/m² | - |
| 1777919102 | 20.56° C | 45% | 1014.2 hPa | 0 mm | - | 0 W/m² | - |
* Rain latest hour (hover to see other rain measurements)
** Current wind speed in m/s (hover to see current wind gust speed)